����,���ϕ���(m/s),���ϕ���,�ő�u�ԕ���(m/s),�ő啗��������,�C��(��),���x(%),10���Ԉړ��ώZ�J��(mm),1���Ԉړ��ώZ�J��(mm),���J��(mm),�݌v�J��(mm)
2020-12-14T00:00:00+09:00,1,��쐼,4.6,��쐼,7.4,64.3,0,0,0,0
2020-12-14T00:01:00+09:00,1.1,��쐼,4.6,��쐼,7.5,63.9,0,0,0,0
2020-12-14T00:02:00+09:00,1.2,��쐼,4.6,��쐼,7.5,63.5,0,0,0,0
2020-12-14T00:03:00+09:00,1.1,��쐼,4.6,��쐼,7.5,63.1,0,0,0,0
2020-12-14T00:04:00+09:00,1.1,��쐼,4.6,��쐼,7.4,63.2,0,0,0,0
2020-12-14T00:05:00+09:00,1.1,��쐼,4.6,��쐼,7.4,63.1,0,0,0,0
2020-12-14T00:06:00+09:00,1.1,��쐼,4.6,��쐼,7.4,62.9,0,0,0,0
2020-12-14T00:07:00+09:00,1,��쐼,4.6,��쐼,7.3,63,0,0,0,0
2020-12-14T00:08:00+09:00,1.2,��쐼,4.6,��쐼,7.6,63.2,0,0,0,0
2020-12-14T00:09:00+09:00,1.2,��쐼,4.6,��쐼,7.6,62.2,0,0,0,0
2020-12-14T00:10:00+09:00,1.1,��쐼,4.4,��쐼,7.4,61.7,0,0,0,0
2020-12-14T00:11:00+09:00,1.1,�쐼,4.4,��쐼,7.3,62.3,0,0,0,0
2020-12-14T00:12:00+09:00,1,�쐼,4.4,��쐼,7.4,62.4,0,0,0,0
2020-12-14T00:13:00+09:00,1,�쐼,4.4,��쐼,7.5,62.3,0,0,0,0
2020-12-14T00:14:00+09:00,0.9,�쐼,4.4,��쐼,7.5,62.4,0,0,0,0
2020-12-14T00:15:00+09:00,0.9,��쐼,4.4,��쐼,7.5,62.3,0,0,0,0
2020-12-14T00:16:00+09:00,1.1,��쐼,4.4,��쐼,7.7,62.2,0,0,0,0
2020-12-14T00:17:00+09:00,1.2,�쐼,4.5,�쐼,7.6,61.3,0,0,0,0
2020-12-14T00:18:00+09:00,1.1,�쐼,4.5,�쐼,7.7,60.8,0,0,0,0
2020-12-14T00:19:00+09:00,1,�쐼,4.5,�쐼,7.7,60.5,0,0,0,0
2020-12-14T00:20:00+09:00,1,��쐼,4.5,�쐼,7.6,60.5,0,0,0,0
2020-12-14T00:21:00+09:00,1.1,��쐼,4.5,�쐼,7.8,60.3,0,0,0,0
2020-12-14T00:22:00+09:00,1.2,��쐼,4.5,�쐼,7.8,60,0,0,0,0
2020-12-14T00:23:00+09:00,1.2,��쐼,4.5,�쐼,7.9,59.8,0,0,0,0
2020-12-14T00:24:00+09:00,1.3,��쐼,4.5,�쐼,8,59.8,0,0,0,0
2020-12-14T00:25:00+09:00,1.3,��쐼,4.5,�쐼,8.1,59.7,0,0,0,0
2020-12-14T00:26:00+09:00,1.3,��,4.5,�쐼,7.9,59.4,0,0,0,0
2020-12-14T00:27:00+09:00,1.3,��,4.4,��쐼,7.8,59.7,0,0,0,0
2020-12-14T00:28:00+09:00,1.3,��,4.4,��쐼,7.9,59.8,0,0,0,0
2020-12-14T00:29:00+09:00,1.5,��,4.4,��쐼,8,59.7,0,0,0,0
2020-12-14T00:30:00+09:00,1.6,��,4.6,�쐼,7.9,59.4,0,0,0,0
2020-12-14T00:31:00+09:00,1.7,��,4.6,�쐼,8,59.5,0,0,0,0
2020-12-14T00:32:00+09:00,1.7,��쓌,4.6,�쐼,8.1,59.7,0,0,0,0
2020-12-14T00:33:00+09:00,1.7,��,4.6,�쐼,8,59,0,0,0,0
2020-12-14T00:34:00+09:00,1.7,��,4.6,�쐼,8.2,58.7,0,0,0,0
2020-12-14T00:35:00+09:00,1.9,��,7,��쐼,8,58.4,0,0,0,0
2020-12-14T00:36:00+09:00,2.1,��쐼,7,��쐼,8.3,58.3,0,0,0,0
2020-12-14T00:37:00+09:00,2.1,��쐼,7,��쐼,8.2,57.5,0,0,0,0
2020-12-14T00:38:00+09:00,2.2,��쐼,7,��쐼,8.2,57.1,0,0,0,0
2020-12-14T00:39:00+09:00,2.2,��쐼,7,��쐼,8.2,56.7,0,0,0,0
2020-12-14T00:40:00+09:00,2.2,��쐼,7,��쐼,8.2,57.2,0,0,0,0
2020-12-14T00:41:00+09:00,2.2,��쐼,7,��쐼,8.4,57.1,0,0,0,0
2020-12-14T00:42:00+09:00,2.3,��쐼,7,��쐼,8.4,56.6,0,0,0,0
2020-12-14T00:43:00+09:00,2.3,��쐼,7,��쐼,8.3,56.8,0,0,0,0
2020-12-14T00:44:00+09:00,2.3,��쐼,7.3,��쐼,8.3,57,0,0,0,0
2020-12-14T00:45:00+09:00,2.3,��쐼,7.3,��쐼,8.4,56.7,0,0,0,0
2020-12-14T00:46:00+09:00,2.3,��쐼,7.3,��쐼,8.5,56.2,0,0,0,0
2020-12-14T00:47:00+09:00,2.2,��쐼,7.3,��쐼,8.3,55.9,0,0,0,0
2020-12-14T00:48:00+09:00,2.2,��쐼,7.3,��쐼,8.1,56.3,0,0,0,0
2020-12-14T00:49:00+09:00,2.2,��쐼,7.3,��쐼,8.1,56.9,0,0,0,0
2020-12-14T00:50:00+09:00,2.1,��쐼,7.3,��쐼,8.2,57.1,0,0,0,0
2020-12-14T00:51:00+09:00,1.8,��쐼,7.3,��쐼,8.2,57.4,0,0,0,0
2020-12-14T00:52:00+09:00,1.9,��쐼,7.3,��쐼,8.3,57.4,0,0,0,0
2020-12-14T00:53:00+09:00,1.9,��쐼,7.3,��쐼,8.3,57,0,0,0,0
2020-12-14T00:54:00+09:00,1.8,��쐼,6.2,�쐼,8.2,56.8,0,0,0,0
2020-12-14T00:55:00+09:00,1.6,��쐼,6.2,�쐼,8.2,57,0,0,0,0
2020-12-14T00:56:00+09:00,1.6,��쐼,6.2,�쐼,8.2,57.2,0,0,0,0
2020-12-14T00:57:00+09:00,1.6,��,6.2,�쐼,8.3,57.2,0,0,0,0
2020-12-14T00:58:00+09:00,1.4,��,4.6,��쓌,8.3,57.1,0,0,0,0
2020-12-14T00:59:00+09:00,1.3,��,4.6,��쓌,8.2,56.8,0,0,0,0
2020-12-14T01:00:00+09:00,1.4,��,4.6,��쓌,8.2,56.9,0,0,0,0
2020-12-14T01:01:00+09:00,1.5,��,4.6,��쓌,8.4,57,0,0,0,0
2020-12-14T01:02:00+09:00,1.4,��,4.6,��쓌,8.2,56.4,0,0,0,0
2020-12-14T01:03:00+09:00,1.3,��,4.6,��쓌,8.2,56.7,0,0,0,0
2020-12-14T01:04:00+09:00,1.2,��,4.6,��쓌,8.2,56.9,0,0,0,0
2020-12-14T01:05:00+09:00,1.2,��쓌,4.6,��쓌,8.2,56.8,0,0,0,0
2020-12-14T01:06:00+09:00,1.2,��쓌,3.7,�k��,8.3,56.9,0,0,0,0
2020-12-14T01:07:00+09:00,1.2,��쓌,3.7,�k��,8.1,56.8,0,0,0,0
2020-12-14T01:08:00+09:00,1.3,��쓌,3.8,��쓌,8.2,57.1,0,0,0,0
2020-12-14T01:09:00+09:00,1.3,��쓌,3.8,��쓌,8.1,57,0,0,0,0
2020-12-14T01:10:00+09:00,1.3,��쓌,3.8,��쓌,7.9,57.2,0,0,0,0
2020-12-14T01:11:00+09:00,1.2,��,3.8,��쓌,7.9,57.8,0,0,0,0
2020-12-14T01:12:00+09:00,1.3,��,3.8,��쓌,8,57.9,0,0,0,0
2020-12-14T01:13:00+09:00,1.4,��,3.8,��쓌,8.2,57.9,0,0,0,0
2020-12-14T01:14:00+09:00,1.4,��,3.8,��쓌,8.2,57.4,0,0,0,0
2020-12-14T01:15:00+09:00,1.4,��쐼,3.8,��쓌,8,57.6,0,0,0,0
2020-12-14T01:16:00+09:00,1.4,��쐼,3.8,��쓌,8,57.8,0,0,0,0
2020-12-14T01:17:00+09:00,1.3,��쐼,3.8,��쓌,7.9,57.9,0,0,0,0
2020-12-14T01:18:00+09:00,1.1,��쐼,2.9,��쐼,8,58.2,0,0,0,0
2020-12-14T01:19:00+09:00,1.1,��쐼,3.2,��쐼,8,58.2,0,0,0,0
2020-12-14T01:20:00+09:00,1.2,��쐼,4.2,���쐼,8,58,0,0,0,0
2020-12-14T01:21:00+09:00,1.3,��,4.2,���쐼,8.1,58,0,0,0,0
2020-12-14T01:22:00+09:00,1.3,��,4.2,���쐼,8.2,57.9,0,0,0,0
2020-12-14T01:23:00+09:00,1.4,��,4.2,���쐼,8.3,57.6,0,0,0,0
2020-12-14T01:24:00+09:00,1.4,��쐼,4.2,���쐼,8.3,57.1,0,0,0,0
2020-12-14T01:25:00+09:00,1.3,��쐼,4.2,���쐼,8,57.1,0,0,0,0
2020-12-14T01:26:00+09:00,1.4,��쐼,4.2,���쐼,8.1,57.4,0,0,0,0
2020-12-14T01:27:00+09:00,1.4,��쐼,4.2,���쐼,8.2,57.3,0,0,0,0
2020-12-14T01:28:00+09:00,1.4,��쐼,4.2,���쐼,8.2,57.3,0,0,0,0
2020-12-14T01:29:00+09:00,1.4,��쐼,4.2,���쐼,8.1,57.4,0,0,0,0
2020-12-14T01:30:00+09:00,1.4,��쐼,3.9,��쐼,8.2,57.3,0,0,0,0
2020-12-14T01:31:00+09:00,1.4,��쐼,4.8,��쐼,8.2,57.2,0,0,0,0
2020-12-14T01:32:00+09:00,1.3,��쐼,4.8,��쐼,8.2,57.2,0,0,0,0
2020-12-14T01:33:00+09:00,1.2,�쐼,4.8,��쐼,8.3,57.1,0,0,0,0
2020-12-14T01:34:00+09:00,1.3,��쐼,4.8,��쐼,8.4,57,0,0,0,0
2020-12-14T01:35:00+09:00,1.3,��쐼,4.8,��쐼,8.4,56.9,0,0,0,0
2020-12-14T01:36:00+09:00,1.3,��쐼,4.8,��쐼,8.3,56.7,0,0,0,0
2020-12-14T01:37:00+09:00,1.3,�쐼,4.8,��쐼,8.3,56.8,0,0,0,0
2020-12-14T01:38:00+09:00,1.3,�쐼,4.8,��쐼,8.2,56.9,0,0,0,0
2020-12-14T01:39:00+09:00,1.3,�쐼,4.8,��쐼,8.2,57.2,0,0,0,0
2020-12-14T01:40:00+09:00,1.1,��쐼,4.8,��쐼,8.3,57.2,0,0,0,0
2020-12-14T01:41:00+09:00,1.2,��쐼,3.9,��쐼,8.3,57.4,0,0,0,0
2020-12-14T01:42:00+09:00,1.1,��쐼,3.9,��쐼,8.3,57.1,0,0,0,0
2020-12-14T01:43:00+09:00,1.1,��쐼,3.9,��쐼,8.2,57.3,0,0,0,0
2020-12-14T01:44:00+09:00,1,��쐼,3.9,��쐼,8.2,57.5,0,0,0,0
2020-12-14T01:45:00+09:00,0.9,��쐼,3.9,��쐼,8.3,57.6,0,0,0,0
2020-12-14T01:46:00+09:00,0.8,��쐼,3.1,��,8.4,57.4,0,0,0,0
2020-12-14T01:47:00+09:00,0.8,��,3.1,��,8.3,57.4,0,0,0,0
2020-12-14T01:48:00+09:00,0.8,��쐼,3.1,��,8.4,57.5,0,0,0,0
2020-12-14T01:49:00+09:00,0.9,��쐼,4,��,8.3,57.3,0,0,0,0
2020-12-14T01:50:00+09:00,1.1,��쐼,4,��,8.4,57.5,0,0,0,0
2020-12-14T01:51:00+09:00,1.1,��쐼,4,��,8.5,57.5,0,0,0,0
2020-12-14T01:52:00+09:00,1,��쐼,4,��,8.2,57.4,0,0,0,0
2020-12-14T01:53:00+09:00,1,��,4,��,8.3,57.7,0,0,0,0
2020-12-14T01:54:00+09:00,1,��쐼,4,��,8.3,57.9,0,0,0,0
2020-12-14T01:55:00+09:00,1.1,��쐼,4,��,8.3,58,0,0,0,0
2020-12-14T01:56:00+09:00,1.1,��쐼,4,��,8.4,58.1,0,0,0,0
2020-12-14T01:57:00+09:00,1.1,��쐼,4,��,8.3,58.2,0,0,0,0
2020-12-14T01:58:00+09:00,1,��쐼,4,��,8.2,58.5,0,0,0,0
2020-12-14T01:59:00+09:00,0.9,��쐼,4,��쐼,8.2,58.7,0,0,0,0
2020-12-14T02:00:00+09:00,0.7,��쐼,3.5,�쐼,8.2,58.6,0,0,0,0
2020-12-14T02:01:00+09:00,0.6,�쐼,3.5,�쐼,8.1,59.1,0,0,0,0
2020-12-14T02:02:00+09:00,0.6,���쐼,3.5,�쐼,8,59.7,0,0,0,0
2020-12-14T02:03:00+09:00,0.6,���k��,3.5,�쐼,8,60,0,0,0,0
2020-12-14T02:04:00+09:00,0.6,�k��,3.5,�쐼,7.9,60.3,0,0,0,0
2020-12-14T02:05:00+09:00,0.5,�k�k��,2,��쓌,7.9,61.2,0,0,0,0
2020-12-14T02:06:00+09:00,0.5,�k,1.6,���k��,7.8,61.7,0,0,0,0
2020-12-14T02:07:00+09:00,0.6,�k,1.9,�k��,7.7,62.5,0,0,0,0
2020-12-14T02:08:00+09:00,0.7,�k,2.3,�k��,7.7,63,0,0,0,0
2020-12-14T02:09:00+09:00,0.8,�k�k��,2.3,�k��,7.6,63.4,0,0,0,0
2020-12-14T02:10:00+09:00,0.8,�k�k��,2.3,�k��,7.6,63.6,0,0,0,0
2020-12-14T02:11:00+09:00,0.9,�k��,2.3,�k��,7.5,64.3,0,0,0,0
2020-12-14T02:12:00+09:00,1,�k��,2.4,���k��,7.4,65.2,0,0,0,0
2020-12-14T02:13:00+09:00,1.1,�k��,2.4,���k��,7.4,66,0,0,0,0
2020-12-14T02:14:00+09:00,1.2,�k��,2.4,���k��,7.4,66.3,0,0,0,0
2020-12-14T02:15:00+09:00,1.4,���k��,4.2,�k��,7.4,66,0,0,0,0
2020-12-14T02:16:00+09:00,1.5,���k��,4.6,�k��,7.8,65.1,0,0,0,0
2020-12-14T02:17:00+09:00,1.5,���k��,4.6,�k��,7.9,63.6,0,0,0,0
2020-12-14T02:18:00+09:00,1.4,��,4.6,�k��,7.9,63.1,0,0,0,0
2020-12-14T02:19:00+09:00,1.3,��,4.6,�k��,7.9,62.8,0,0,0,0
2020-12-14T02:20:00+09:00,1.3,��,4.6,�k��,8,62.7,0,0,0,0
2020-12-14T02:21:00+09:00,1.3,���k��,4.6,�k��,7.7,63.2,0,0,0,0
2020-12-14T02:22:00+09:00,1.3,���k��,4.6,�k��,7.5,64.3,0,0,0,0
2020-12-14T02:23:00+09:00,1.3,���k��,4.6,�k��,7.5,65.4,0,0,0,0
2020-12-14T02:24:00+09:00,1.3,���k��,4.6,�k��,7.6,65.3,0,0,0,0
2020-12-14T02:25:00+09:00,1.1,��,4.6,�k��,7.6,65.2,0,0,0,0
2020-12-14T02:26:00+09:00,0.9,���k��,2.6,��,7.6,65.4,0,0,0,0
2020-12-14T02:27:00+09:00,1,���k��,2.6,��,7.6,65.2,0,0,0,0
2020-12-14T02:28:00+09:00,1,���k��,2.6,��,7.6,65.3,0,0,0,0
2020-12-14T02:29:00+09:00,1,�k��,2.6,��,7.6,65.3,0,0,0,0
2020-12-14T02:30:00+09:00,1,�k��,2.6,��,7.6,65.4,0,0,0,0
2020-12-14T02:31:00+09:00,0.9,�k��,2.6,��,7.5,65.6,0,0,0,0
2020-12-14T02:32:00+09:00,0.8,�k��,2.2,�k��,7.5,66.1,0,0,0,0
2020-12-14T02:33:00+09:00,0.8,�k��,2.2,�k��,7.5,66.2,0,0,0,0
2020-12-14T02:34:00+09:00,0.8,���k��,2,��,7.6,66.1,0,0,0,0
2020-12-14T02:35:00+09:00,0.9,���k��,2,��,7.8,65.5,0,0,0,0
2020-12-14T02:36:00+09:00,0.9,���k��,2.1,�쓌,7.6,65.5,0,0,0,0
2020-12-14T02:37:00+09:00,1,���k��,2.1,�쓌,7.7,65.4,0,0,0,0
2020-12-14T02:38:00+09:00,0.9,���k��,2.3,��,7.6,65.2,0,0,0,0
2020-12-14T02:39:00+09:00,1,��,2.3,��,7.9,65,0,0,0,0
2020-12-14T02:40:00+09:00,1,��,2.3,��,8.1,63.8,0,0,0,0
2020-12-14T02:41:00+09:00,1,���쓌,2.3,��,8.3,63.2,0,0,0,0
2020-12-14T02:42:00+09:00,1,���쓌,2.4,�쓌,8.2,62.4,0,0,0,0
2020-12-14T02:43:00+09:00,1,���쓌,2.4,�쓌,8.1,62.5,0,0,0,0
2020-12-14T02:44:00+09:00,0.9,���쓌,2.5,��쐼,7.9,62.7,0,0,0,0
2020-12-14T02:45:00+09:00,1,�쓌,2.5,��쐼,8.2,62.7,0,0,0,0
2020-12-14T02:46:00+09:00,1,��쓌,2.5,��쐼,8.3,61.8,0,0,0,0
2020-12-14T02:47:00+09:00,1,��쓌,2.5,��쐼,8.3,61.2,0,0,0,0
2020-12-14T02:48:00+09:00,1,��,2.5,��쐼,8,61.4,0,0,0,0
2020-12-14T02:49:00+09:00,1,��,2.5,��쐼,8.1,62.1,0,0,0,0
2020-12-14T02:50:00+09:00,1,��쓌,2.5,��쐼,8.3,61.9,0,0,0,0
2020-12-14T02:51:00+09:00,1.1,��쓌,2.5,��쐼,8.3,61.5,0,0,0,0
2020-12-14T02:52:00+09:00,1,��,2.5,��쐼,8.1,61.7,0,0,0,0
2020-12-14T02:53:00+09:00,1,��,2.5,��쐼,7.9,62.4,0,0,0,0
2020-12-14T02:54:00+09:00,1.1,��,2.9,��쐼,8,63.2,0,0,0,0
2020-12-14T02:55:00+09:00,1.2,��,3.8,��,8.2,62.4,0,0,0,0
2020-12-14T02:56:00+09:00,1.2,��,3.8,��,8.4,61.7,0,0,0,0
2020-12-14T02:57:00+09:00,1.1,��,3.8,��,8.3,61,0,0,0,0
2020-12-14T02:58:00+09:00,1.2,��,3.8,��,8.5,60.9,0,0,0,0
2020-12-14T02:59:00+09:00,1.1,��,3.8,��,8.3,60.5,0,0,0,0
2020-12-14T03:00:00+09:00,1,��,3.8,��,8.3,60.8,0,0,0,0
2020-12-14T03:01:00+09:00,0.9,��,3.8,��,8.1,61.1,0,0,0,0
2020-12-14T03:02:00+09:00,0.9,��,3.8,��,7.9,61.2,0,0,0,0
2020-12-14T03:03:00+09:00,0.9,��,3.8,��,7.6,62.7,0,0,0,0
2020-12-14T03:04:00+09:00,0.8,��쓌,3.8,��,7.4,64.4,0,0,0,0
2020-12-14T03:05:00+09:00,0.6,�쓌,2.8,��쐼,7.3,65.7,0,0,0,0
2020-12-14T03:06:00+09:00,0.6,�쓌,2.2,��,7.3,66.4,0,0,0,0
2020-12-14T03:07:00+09:00,0.5,���쓌,2.1,��쐼,7.3,66.5,0,0,0,0
2020-12-14T03:08:00+09:00,0.5,���쓌,1.5,�쓌,7.2,66.9,0,0,0,0
2020-12-14T03:09:00+09:00,0.6,��,1.5,�쓌,7.2,67.3,0,0,0,0
2020-12-14T03:10:00+09:00,0.7,��,1.7,���k��,6.9,67.7,0,0,0,0
2020-12-14T03:11:00+09:00,0.8,��,1.9,�k��,6.8,68.6,0,0,0,0
2020-12-14T03:12:00+09:00,0.8,���k��,1.9,�k��,6.8,69.2,0,0,0,0
2020-12-14T03:13:00+09:00,0.9,���k��,1.9,�k��,6.7,69.7,0,0,0,0
2020-12-14T03:14:00+09:00,1,���k��,2.4,���k��,6.7,69.9,0,0,0,0
2020-12-14T03:15:00+09:00,1.1,���k��,2.5,�k��,6.7,70.2,0,0,0,0
2020-12-14T03:16:00+09:00,1.1,�k��,2.5,�k��,6.7,70.7,0,0,0,0
2020-12-14T03:17:00+09:00,1.3,�k��,2.5,�k��,6.7,71,0,0,0,0
2020-12-14T03:18:00+09:00,1.4,�k��,3.1,���k��,6.7,71.2,0,0,0,0
2020-12-14T03:19:00+09:00,1.4,�k��,3.1,���k��,6.7,70.9,0,0,0,0
2020-12-14T03:20:00+09:00,1.4,�k��,3.1,���k��,6.5,71,0,0,0,0
2020-12-14T03:21:00+09:00,1.4,�k��,3.1,���k��,6.4,71.6,0,0,0,0
2020-12-14T03:22:00+09:00,1.5,�k��,3.1,���k��,6.4,72.3,0,0,0,0
2020-12-14T03:23:00+09:00,1.5,�k��,3.1,���k��,6.4,72.5,0,0,0,0
2020-12-14T03:24:00+09:00,1.5,�k��,3.1,���k��,6.3,72.6,0,0,0,0
2020-12-14T03:25:00+09:00,1.4,�k��,3.1,���k��,6.3,73,0,0,0,0
2020-12-14T03:26:00+09:00,1.3,�k��,3.1,���k��,6.3,73.2,0,0,0,0
2020-12-14T03:27:00+09:00,1.3,�k��,3.1,���k��,6.3,73.4,0,0,0,0
2020-12-14T03:28:00+09:00,1.2,�k��,2.9,���k��,6.2,73.5,0,0,0,0
2020-12-14T03:29:00+09:00,1.2,�k��,2.1,�k�k��,6.3,73.8,0,0,0,0
2020-12-14T03:30:00+09:00,1.3,�k��,2.1,�k�k��,6.5,73.5,0,0,0,0
2020-12-14T03:31:00+09:00,1.4,�k��,3.3,���k��,6.4,73,0,0,0,0
2020-12-14T03:32:00+09:00,1.5,���k��,3.3,���k��,6.3,72.9,0,0,0,0
2020-12-14T03:33:00+09:00,1.5,���k��,3.3,���k��,6.3,72.9,0,0,0,0
2020-12-14T03:34:00+09:00,1.6,���k��,3.3,���k��,6.1,73.2,0,0,0,0
2020-12-14T03:35:00+09:00,1.7,���k��,3.3,���k��,6.1,73.8,0,0,0,0
2020-12-14T03:36:00+09:00,1.8,���k��,3.3,���k��,6,74.2,0,0,0,0
2020-12-14T03:37:00+09:00,1.8,���k��,3.3,���k��,5.9,74.4,0,0,0,0
2020-12-14T03:38:00+09:00,1.9,���k��,3.3,���k��,5.9,74.9,0,0,0,0
2020-12-14T03:39:00+09:00,1.9,���k��,3.3,���k��,5.9,75.2,0,0,0,0
2020-12-14T03:40:00+09:00,2,���k��,3.3,���k��,6,75.4,0,0,0,0
2020-12-14T03:41:00+09:00,2,���k��,3.5,���k��,6.2,75.2,0,0,0,0
2020-12-14T03:42:00+09:00,2,���k��,3.5,���k��,6.2,74.7,0,0,0,0
2020-12-14T03:43:00+09:00,2,���k��,3.5,���k��,6.1,74.5,0,0,0,0
2020-12-14T03:44:00+09:00,2,���k��,3.5,���k��,6,74.8,0,0,0,0
2020-12-14T03:45:00+09:00,2.1,���k��,3.5,���k��,6.4,74.9,0,0,0,0
2020-12-14T03:46:00+09:00,2.1,���k��,3.5,���k��,6.6,74.1,0,0,0,0
2020-12-14T03:47:00+09:00,2.1,���k��,3.5,���k��,6.5,72.8,0,0,0,0
2020-12-14T03:48:00+09:00,2,���k��,3.5,���k��,6.3,72.7,0,0,0,0
2020-12-14T03:49:00+09:00,2,���k��,3.5,���k��,6.2,72.7,0,0,0,0
2020-12-14T03:50:00+09:00,1.9,���k��,3.5,���k��,6.1,73.2,0,0,0,0
2020-12-14T03:51:00+09:00,1.8,���k��,3.2,���k��,6,73.6,0,0,0,0
2020-12-14T03:52:00+09:00,1.7,���k��,3.2,���k��,6.1,74.3,0,0,0,0
2020-12-14T03:53:00+09:00,1.6,���k��,3.2,���k��,6.1,74.2,0,0,0,0
2020-12-14T03:54:00+09:00,1.5,���k��,3.2,���k��,6,74.1,0,0,0,0
2020-12-14T03:55:00+09:00,1.4,���k��,2.3,���k��,5.9,74.4,0,0,0,0
2020-12-14T03:56:00+09:00,1.4,���k��,2.3,���k��,5.8,74.8,0,0,0,0
2020-12-14T03:57:00+09:00,1.4,���k��,2.3,���k��,5.8,75.1,0,0,0,0
2020-12-14T03:58:00+09:00,1.4,���k��,2.3,���k��,5.7,75.5,0,0,0,0
2020-12-14T03:59:00+09:00,1.4,���k��,3,�k�k��,5.9,75.8,0,0,0,0
2020-12-14T04:00:00+09:00,1.5,���k��,3.7,�k��,6,75.9,0,0,0,0
2020-12-14T04:01:00+09:00,1.5,���k��,3.7,�k��,6.1,75.6,0,0,0,0
2020-12-14T04:02:00+09:00,1.6,�k��,3.7,�k��,6,75.3,0,0,0,0
2020-12-14T04:03:00+09:00,1.6,�k��,3.7,�k��,6.1,75.2,0,0,0,0
2020-12-14T04:04:00+09:00,1.6,�k��,3.7,�k��,6.3,74.9,0,0,0,0
2020-12-14T04:05:00+09:00,1.7,�k��,3.7,�k��,6.3,74.4,0,0,0,0
2020-12-14T04:06:00+09:00,1.8,�k��,3.7,�k��,6,73.9,0,0,0,0
2020-12-14T04:07:00+09:00,1.8,�k��,3.7,�k��,5.8,74.2,0,0,0,0
2020-12-14T04:08:00+09:00,1.8,�k��,3.7,�k��,5.8,75,0,0,0,0
2020-12-14T04:09:00+09:00,1.8,�k��,3.7,�k��,5.8,75.4,0,0,0,0
2020-12-14T04:10:00+09:00,1.7,���k��,3.2,���k��,5.9,75.8,0,0,0,0
2020-12-14T04:11:00+09:00,1.7,���k��,3.2,���k��,5.9,75.8,0,0,0,0
2020-12-14T04:12:00+09:00,1.7,���k��,3.2,���k��,5.9,75.7,0,0,0,0
2020-12-14T04:13:00+09:00,1.6,���k��,3.2,���k��,6,75.6,0,0,0,0
2020-12-14T04:14:00+09:00,1.6,���k��,3.2,���k��,5.8,75.4,0,0,0,0
2020-12-14T04:15:00+09:00,1.5,���k��,3,���k��,6,75.9,0,0,0,0
2020-12-14T04:16:00+09:00,1.4,���k��,2.8,���k��,6.1,75.7,0,0,0,0
2020-12-14T04:17:00+09:00,1.4,���k��,2.8,���k��,6.3,75.4,0,0,0,0
2020-12-14T04:18:00+09:00,1.4,���k��,3,���k��,6.5,74.7,0,0,0,0
2020-12-14T04:19:00+09:00,1.5,���k��,3,���k��,6.4,73.8,0,0,0,0
2020-12-14T04:20:00+09:00,1.4,���k��,3,���k��,6.1,73.4,0,0,0,0
2020-12-14T04:21:00+09:00,1.3,���k��,3,���k��,6,73.9,0,0,0,0
2020-12-14T04:22:00+09:00,1.2,���k��,3,���k��,6,74.3,0,0,0,0
2020-12-14T04:23:00+09:00,1.2,���k��,3,���k��,6,74.5,0,0,0,0
2020-12-14T04:24:00+09:00,1.2,�k��,3,���k��,6,74.7,0,0,0,0
2020-12-14T04:25:00+09:00,1.2,�k��,3,���k��,6,75,0,0,0,0
2020-12-14T04:26:00+09:00,1.1,�k��,3,���k��,6,75.2,0,0,0,0
2020-12-14T04:27:00+09:00,1.1,���k��,3,���k��,5.9,75.2,0,0,0,0
2020-12-14T04:28:00+09:00,1,���k��,2.7,���k��,5.8,75.6,0,0,0,0
2020-12-14T04:29:00+09:00,1,���k��,2,��,5.8,75.8,0,0,0,0
2020-12-14T04:30:00+09:00,1,���k��,2,��,5.8,76.2,0,0,0,0
2020-12-14T04:31:00+09:00,1.1,���k��,2,��,5.8,76.6,0,0,0,0
2020-12-14T04:32:00+09:00,1.2,���k��,2,��,5.8,76.8,0,0,0,0
2020-12-14T04:33:00+09:00,1.3,��,2.2,���k��,5.8,76.7,0,0,0,0
2020-12-14T04:34:00+09:00,1.3,��,2.3,���k��,5.8,76.8,0,0,0,0
2020-12-14T04:35:00+09:00,1.4,��,2.3,���k��,5.8,76.9,0,0,0,0
2020-12-14T04:36:00+09:00,1.4,��,2.3,���k��,5.7,76.7,0,0,0,0
2020-12-14T04:37:00+09:00,1.4,��,2.3,���k��,5.9,77.2,0,0,0,0
2020-12-14T04:38:00+09:00,1.4,��,2.3,���k��,6,77.2,0,0,0,0
2020-12-14T04:39:00+09:00,1.4,��,2.3,���k��,5.9,76.5,0,0,0,0
2020-12-14T04:40:00+09:00,1.4,��,3.1,��,5.8,76.2,0,0,0,0
2020-12-14T04:41:00+09:00,1.3,��,3.1,��,5.6,76,0,0,0,0
2020-12-14T04:42:00+09:00,1.3,���쓌,3.1,��,5.5,76.2,0,0,0,0
2020-12-14T04:43:00+09:00,1.3,���쓌,3.1,��,5.5,76.9,0,0,0,0
2020-12-14T04:44:00+09:00,1.2,�쓌,3.1,��,5.5,77.2,0,0,0,0
2020-12-14T04:45:00+09:00,1.2,�쓌,3.1,��,5.6,77.4,0,0,0,0
2020-12-14T04:46:00+09:00,1.1,�쓌,3.1,��,5.5,77.4,0,0,0,0
2020-12-14T04:47:00+09:00,1.1,��쓌,3.1,��,5.5,77.6,0,0,0,0
2020-12-14T04:48:00+09:00,1,��쓌,3.1,��,5.6,77.7,0,0,0,0
2020-12-14T04:49:00+09:00,0.9,��쓌,3.1,��,5.4,77.5,0,0,0,0
2020-12-14T04:50:00+09:00,0.9,��쓌,2.6,��,5.4,77.7,0,0,0,0
2020-12-14T04:51:00+09:00,0.8,��쓌,2,�쓌,5.4,77.9,0,0,0,0
2020-12-14T04:52:00+09:00,0.7,��쓌,2,�쓌,5.3,78.1,0,0,0,0
2020-12-14T04:53:00+09:00,0.7,��쓌,2,�쓌,5.4,78.5,0,0,0,0
2020-12-14T04:54:00+09:00,0.7,��쓌,2,�쓌,5.5,78.7,0,0,0,0
2020-12-14T04:55:00+09:00,0.7,��쓌,1.6,�쓌,5.4,78.6,0,0,0,0
2020-12-14T04:56:00+09:00,0.7,�쓌,1.4,��,5.4,78.8,0,0,0,0
2020-12-14T04:57:00+09:00,0.7,�쓌,1.4,��,5.4,79,0,0,0,0
2020-12-14T04:58:00+09:00,0.8,�쓌,1.4,��,5.4,78.9,0,0,0,0
2020-12-14T04:59:00+09:00,0.7,�쓌,1.4,�쓌,5.4,79,0,0,0,0
2020-12-14T05:00:00+09:00,0.7,�쓌,1.4,�쓌,5.4,79,0,0,0,0
2020-12-14T05:01:00+09:00,0.8,�쓌,1.4,�쓌,5.4,78.8,0,0,0,0
2020-12-14T05:02:00+09:00,0.8,�쓌,1.9,�쓌,5.3,78.5,0,0,0,0
2020-12-14T05:03:00+09:00,0.9,�쓌,2.9,�쓌,5.3,78.7,0,0,0,0
2020-12-14T05:04:00+09:00,1,�쓌,2.9,�쓌,5.3,78.9,0,0,0,0
2020-12-14T05:05:00+09:00,1,�쓌,2.9,�쓌,5.3,79,0,0,0,0
2020-12-14T05:06:00+09:00,0.9,��쓌,2.9,�쓌,5.3,79.1,0,0,0,0
2020-12-14T05:07:00+09:00,0.9,��쓌,2.9,�쓌,5.3,79,0,0,0,0
2020-12-14T05:08:00+09:00,1,��쓌,2.9,�쓌,5.3,79.1,0,0,0,0
2020-12-14T05:09:00+09:00,1.1,��쓌,2.9,�쓌,5.2,79,0,0,0,0
2020-12-14T05:10:00+09:00,1.1,��쓌,2.9,�쓌,5.3,79.4,0,0,0,0
2020-12-14T05:11:00+09:00,1.2,��쓌,2.9,�쓌,5.4,79.7,0,0,0,0
2020-12-14T05:12:00+09:00,1.1,��쓌,2.9,�쓌,5.5,79.4,0,0,0,0
2020-12-14T05:13:00+09:00,1,��쓌,2.8,���쓌,5.4,78.6,0,0,0,0
2020-12-14T05:14:00+09:00,1,��쓌,2.4,��쓌,5.4,78.7,0,0,0,0
2020-12-14T05:15:00+09:00,1.1,��쓌,2.4,��쓌,5.4,78.8,0,0,0,0
2020-12-14T05:16:00+09:00,1.2,��쓌,2.4,��쓌,5.4,78.8,0,0,0,0
2020-12-14T05:17:00+09:00,1.2,�쓌,2.4,��쓌,5.4,78.8,0,0,0,0
2020-12-14T05:18:00+09:00,1.1,�쓌,2.3,��쓌,5.5,78.7,0,0,0,0
2020-12-14T05:19:00+09:00,1.1,�쓌,2.3,��쓌,5.3,78.2,0,0,0,0
2020-12-14T05:20:00+09:00,1.1,���쓌,2.2,�쓌,5.4,78.4,0,0,0,0
2020-12-14T05:21:00+09:00,1.1,���쓌,2.2,�쓌,5.2,78.5,0,0,0,0
2020-12-14T05:22:00+09:00,1.1,��,2.2,�쓌,5.2,78.9,0,0,0,0
2020-12-14T05:23:00+09:00,1,��,2.2,�쓌,5.2,79.2,0,0,0,0
2020-12-14T05:24:00+09:00,0.8,��,2.2,�쓌,5.2,79.5,0,0,0,0
2020-12-14T05:25:00+09:00,0.8,���k��,2.5,��,5,79.3,0,0,0,0
2020-12-14T05:26:00+09:00,0.8,�k��,2.5,��,5,79.3,0,0,0,0
2020-12-14T05:27:00+09:00,0.8,�k,2.5,��,4.9,79.5,0,0,0,0
2020-12-14T05:28:00+09:00,0.8,�k�k��,2.5,��,4.8,79.9,0,0,0,0
2020-12-14T05:29:00+09:00,0.8,�k�k��,2.5,��,4.8,80.3,0,0,0,0
2020-12-14T05:30:00+09:00,0.7,�k,2.5,��,4.8,80.5,0,0,0,0
2020-12-14T05:31:00+09:00,0.8,���k��,2.5,��,4.8,80.9,0,0,0,0
2020-12-14T05:32:00+09:00,0.9,��,2.6,���쐼,4.8,81,0,0,0,0
2020-12-14T05:33:00+09:00,1.1,��,2.6,���쐼,4.8,81.2,0,0,0,0
2020-12-14T05:34:00+09:00,1.1,��,2.6,���쐼,4.7,81.2,0,0,0,0
2020-12-14T05:35:00+09:00,1,���k��,2.6,���쐼,4.6,81,0,0,0,0
2020-12-14T05:36:00+09:00,1,�k��,2.6,���쐼,4.5,81.1,0,0,0,0
2020-12-14T05:37:00+09:00,1.1,�k��,2.6,���쐼,4.5,81.7,0,0,0,0
2020-12-14T05:38:00+09:00,1.2,�k�k��,2.6,���쐼,4.5,82.3,0,0,0,0
2020-12-14T05:39:00+09:00,1.2,�k,2.6,���쐼,4.6,82.8,0,0,0,0
2020-12-14T05:40:00+09:00,1.2,�k,2.6,���쐼,4.7,83.1,0,0,0,0
2020-12-14T05:41:00+09:00,1.2,�k,2.6,���쐼,4.8,82.9,0,0,0,0
2020-12-14T05:42:00+09:00,1,�k,2.5,���k��,4.8,82.8,0,0,0,0
2020-12-14T05:43:00+09:00,0.9,�k,2.5,���k��,4.8,82.7,0,0,0,0
2020-12-14T05:44:00+09:00,0.9,�k,2.5,���k��,4.8,82.4,0,0,0,0
2020-12-14T05:45:00+09:00,0.8,�k,2.5,���k��,4.7,82.1,0,0,0,0
2020-12-14T05:46:00+09:00,0.8,�k�k��,2.5,���k��,4.7,82,0,0,0,0
2020-12-14T05:47:00+09:00,0.6,�k��,2.5,���k��,4.6,82,0,0,0,0
2020-12-14T05:48:00+09:00,0.5,���k��,1.5,���k��,4.6,82.3,0,0,0,0
2020-12-14T05:49:00+09:00,0.4,��,1.4,�k��,4.7,82.7,0,0,0,0
2020-12-14T05:50:00+09:00,0.4,��,1.4,�k��,4.8,82.8,0,0,0,0
2020-12-14T05:51:00+09:00,0.3,���쐼,1.2,�쐼,4.7,82.3,0,0,0,0
2020-12-14T05:52:00+09:00,0.3,�쐼,1.2,�쐼,4.8,82.3,0,0,0,0
2020-12-14T05:53:00+09:00,0.3,�쐼,1.2,�쐼,4.7,82.2,0,0,0,0
2020-12-14T05:54:00+09:00,0.4,��쐼,1.2,�쐼,4.7,82.1,0,0,0,0
2020-12-14T05:55:00+09:00,0.3,��쐼,1.2,�쐼,4.7,82.3,0,0,0,0
2020-12-14T05:56:00+09:00,0.3,�쐼,1,�쓌,4.7,82.3,0,0,0,0
2020-12-14T05:57:00+09:00,0.3,�쐼,1,�쓌,4.7,82.1,0,0,0,0
2020-12-14T05:58:00+09:00,0.3,���쐼,1,�쓌,4.7,82.2,0,0,0,0
2020-12-14T05:59:00+09:00,0.3,���쐼,1,�쓌,4.7,82.4,0,0,0,0
2020-12-14T06:00:00+09:00,0.4,�k,1.4,�k�k��,4.6,82.3,0,0,0,0
2020-12-14T06:01:00+09:00,0.5,�k�k��,1.6,�k��,4.5,82.6,0,0,0,0
2020-12-14T06:02:00+09:00,0.6,�k�k��,1.6,�k��,4.5,82.9,0,0,0,0
2020-12-14T06:03:00+09:00,0.6,�k�k��,1.6,�k��,4.6,83.3,0,0,0,0
2020-12-14T06:04:00+09:00,0.6,�k�k��,1.6,�k��,4.7,83.6,0,0,0,0
2020-12-14T06:05:00+09:00,0.7,�k�k��,1.6,�k��,4.8,83.7,0,0,0,0
2020-12-14T06:06:00+09:00,0.7,�k��,1.6,�k��,4.8,83.1,0,0,0,0
2020-12-14T06:07:00+09:00,0.7,�k��,1.6,�k��,4.6,82.4,0,0,0,0
2020-12-14T06:08:00+09:00,0.8,�k��,1.7,�k��,4.5,82.5,0,0,0,0
2020-12-14T06:09:00+09:00,0.9,�k��,1.7,�k��,4.5,83.1,0,0,0,0
2020-12-14T06:10:00+09:00,0.9,�k��,1.7,�k��,4.6,83.7,0,0,0,0
2020-12-14T06:11:00+09:00,0.9,�k��,1.7,�k��,4.6,83.9,0,0,0,0
2020-12-14T06:12:00+09:00,0.8,�k��,1.7,�k��,4.7,83.8,0,0,0,0
2020-12-14T06:13:00+09:00,0.7,���k��,1.7,�k��,4.7,83.7,0,0,0,0
2020-12-14T06:14:00+09:00,0.7,���k��,1.7,�k��,4.7,83.6,0,0,0,0
2020-12-14T06:15:00+09:00,0.6,���k��,1.7,�k��,4.7,83.4,0,0,0,0
2020-12-14T06:16:00+09:00,0.6,��,1.7,�k��,4.7,83.3,0,0,0,0
2020-12-14T06:17:00+09:00,0.6,�쓌,1.7,�k��,4.6,83.3,0,0,0,0
2020-12-14T06:18:00+09:00,0.5,��쓌,1.7,���k��,4.6,83.4,0,0,0,0
2020-12-14T06:19:00+09:00,0.5,��,1.5,���k��,4.6,83.3,0,0,0,0
2020-12-14T06:20:00+09:00,0.4,��쐼,1,���k��,4.6,83.5,0,0,0,0
2020-12-14T06:21:00+09:00,0.3,��쐼,0.9,��쐼,4.6,83.4,0,0,0,0
2020-12-14T06:22:00+09:00,0.4,��쐼,0.9,��쐼,4.6,83.6,0,0,0,0
2020-12-14T06:23:00+09:00,0.4,��,0.9,��쐼,4.6,83.5,0,0,0,0
2020-12-14T06:24:00+09:00,0.4,��,0.9,��쐼,4.6,83.7,0,0,0,0
2020-12-14T06:25:00+09:00,0.4,��쓌,0.9,��쐼,4.6,83.7,0,0,0,0
2020-12-14T06:26:00+09:00,0.4,��쓌,0.9,��쐼,4.5,83.7,0,0,0,0
2020-12-14T06:27:00+09:00,0.4,��쓌,0.9,��쐼,4.6,83.8,0,0,0,0
2020-12-14T06:28:00+09:00,0.4,��쓌,1.4,��,4.5,84,0,0,0,0
2020-12-14T06:29:00+09:00,0.5,��쓌,1.5,��,4.6,84,0,0,0,0
2020-12-14T06:30:00+09:00,0.5,��쓌,1.5,��,4.6,84.1,0,0,0,0
2020-12-14T06:31:00+09:00,0.5,��쓌,1.5,��,4.6,83.9,0,0,0,0
2020-12-14T06:32:00+09:00,0.5,��,1.5,��,4.6,83.9,0,0,0,0
2020-12-14T06:33:00+09:00,0.5,��,1.5,��,4.6,83.9,0,0,0,0
2020-12-14T06:34:00+09:00,0.5,��쐼,1.5,��,4.7,84.1,0,0,0,0
2020-12-14T06:35:00+09:00,0.4,��쐼,1.5,��,4.7,84,0,0,0,0
2020-12-14T06:36:00+09:00,0.4,���쐼,1.5,��,4.8,83.9,0,0,0,0
2020-12-14T06:37:00+09:00,0.3,���k��,1.5,��,4.8,83.7,0,0,0,0
2020-12-14T06:38:00+09:00,0.3,���k��,1.5,��,4.7,83.6,0,0,0,0
2020-12-14T06:39:00+09:00,0.2,�É�,1.4,��,4.8,83.8,0,0,0,0
2020-12-14T06:40:00+09:00,0.2,�É�,1.5,��,4.8,83.2,0,0,0,0
2020-12-14T06:41:00+09:00,0.3,���k��,1.5,��,4.7,82.9,0,0,0,0
2020-12-14T06:42:00+09:00,0.3,��,1.5,��,4.7,82.8,0,0,0,0